Weather History for Clearfield, PA

Change the Weather History Date:

Wednesday, November 21, 2012

  Actual Average (KDUJ) Record (KDUJ)
Temperature  
Mean Temperature 40 °F 37 °F  
Max Temperature 55 °F 44 °F 62 °F (1991)
Min Temperature 24 °F 30 °F 12 °F (1964)
Degree Days  
Heating Degree Days 26 28  
Month to date heating degree days 506  
Since 1 July heating degree days 1249  
Cooling Degree Days 0 0  
Month to date cooling degree days 0  
Year to date cooling degree days 362  
Moisture  
Dew Point 28 °F    
Average Humidity 82    
Maximum Humidity 100    
Minimum Humidity 37    
Precipitation  
Precipitation 0.00 in 0.13 in 0.55 in (1992)
Month to date precipitation 2.56  
Sea Level Pressure  
Sea Level Pressure 30.20 in    
Wind  
Wind Speed 1 mph (North)    
Max Wind Speed 7 mph    
Max Gust Speed -    
Visibility 5 miles    
Events Fog    
T = Trace of Precipitation, MM = Missing Value Source: NWS Daily Summary

Daily Weather History Graph

Daily Weather History Graph

Search for Another Location

Airport:

Trip Planner

Search our weather history database for the weather conditions in past years. The results will help you decide how hot, cold, wet, or windy it might be!

Date:

Astronomy

Nov. 21, 2012 Rise Set
Actual Time 7:08 AM EST 4:50 PM EST
Civil Twilight 6:38 AM EST 5:20 PM EST
Nautical Twilight 6:05 AM EST 5:53 PM EST
Astronomical Twilight 5:32 AM EST 6:26 PM EST
Moon 1:08 PM EST (11/21) 12:22 AM EST (11/21)
Length of Visible Light 10h 41m
Length of Day
9h 41m
First Quarter, 61% of the Moon is Illuminated
Nov 21
First Quarter
Nov 28
Full
Dec 6
Last Quarter
Dec 13
New
Dec 20
First Quarter

Hourly Weather History & Observations

Time (EST) Temp. Windchill Dew Point Humidity Pressure Visibility Wind Dir Wind Speed Gust Speed Precip Events Conditions
12:54 AM 33.1 °F - 28.9 °F 85% 30.17 in 8.0 mi Calm Calm - N/A   Clear
1:54 AM 30.0 °F - 28.9 °F 96% 30.17 in 4.0 mi Calm Calm - N/A   Clear
2:41 AM 28.4 °F 24.6 °F 28.4 °F 100% 30.14 in 2.0 mi NNE 3.5 mph - N/A   Clear
2:54 AM 28.0 °F 24.2 °F 27.0 °F 96% 30.18 in 1.5 mi NNE 3.5 mph - N/A   Clear
3:01 AM 28.4 °F - 26.6 °F 93% 30.14 in 3.0 mi Calm Calm - N/A   Clear
3:25 AM 28.4 °F - 26.6 °F 93% 30.15 in 1.2 mi Calm Calm - N/A   Clear
3:30 AM 28.4 °F - 26.6 °F 93% 30.14 in 3.0 mi Calm Calm - N/A   Clear
3:54 AM 28.0 °F - 26.1 °F 92% 30.18 in 5.0 mi Calm Calm - N/A   Clear
4:11 AM 28.4 °F - 26.6 °F 93% 30.15 in 1.8 mi Calm Calm - N/A   Clear
4:37 AM 26.6 °F - 26.6 °F 100% 30.15 in 3.0 mi Calm Calm - N/A   Clear
4:54 AM 26.1 °F - 25.0 °F 96% 30.20 in 3.0 mi Calm Calm - N/A   Clear
5:05 AM 26.6 °F - 24.8 °F 93% 30.16 in 2.0 mi Calm Calm - N/A   Clear
5:13 AM 24.8 °F - 24.8 °F 100% 30.17 in 1.0 mi Calm Calm - N/A   Mist
5:18 AM 24.8 °F - 23.0 °F 93% 30.17 in 0.2 mi Calm Calm - N/A Fog Light Freezing Fog
5:31 AM 24.8 °F - 24.8 °F 100% 30.17 in 0.5 mi Calm Calm - N/A Fog Light Freezing Fog
5:40 AM 26.6 °F - 24.8 °F 93% 30.17 in 0.2 mi Calm Calm - N/A Fog Light Freezing Fog
5:54 AM 26.1 °F - 25.0 °F 96% 30.22 in 0.2 mi Calm Calm - N/A Fog Light Freezing Fog
6:54 AM 24.1 °F - 23.0 °F 96% 30.24 in 0.2 mi Calm Calm - N/A Fog Light Freezing Fog
7:54 AM 25.0 °F - 24.1 °F 96% 30.26 in 0.2 mi Calm Calm - N/A Fog Light Freezing Fog
8:54 AM 28.0 °F - 27.0 °F 96% 30.27 in 0.2 mi Calm Calm - N/A Fog Light Freezing Fog
9:54 AM 32.0 °F - 30.0 °F 92% 30.26 in 0.2 mi Calm Calm - N/A Fog Fog
10:54 AM 35.1 °F 32.2 °F 34.0 °F 96% 30.26 in 1.5 mi South 3.5 mph - N/A   Mostly Cloudy
10:56 AM 35.6 °F - 33.8 °F 93% 30.22 in 3.0 mi Calm Calm - N/A   Mostly Cloudy
11:06 AM 37.4 °F - 35.6 °F 93% 30.21 in 7.0 mi Calm Calm - N/A   Scattered Clouds
11:54 AM 45.0 °F - 33.1 °F 63% 30.23 in 10.0 mi Calm Calm - N/A   Clear
12:54 PM 51.1 °F - 30.9 °F 46% 30.21 in 10.0 mi Calm Calm - N/A   Clear
1:54 PM 53.1 °F - 28.9 °F 40% 30.20 in 10.0 mi SSW 4.6 mph - N/A   Clear
2:54 PM 55.0 °F - 30.0 °F 38% 30.19 in 10.0 mi Calm Calm - N/A   Clear
3:54 PM 55.0 °F - 28.9 °F 37% 30.21 in 10.0 mi Calm Calm - N/A   Clear
4:54 PM 51.1 °F - 28.9 °F 43% 30.22 in 10.0 mi Calm Calm - N/A   Clear
5:54 PM 45.0 °F - 30.0 °F 56% 30.23 in 10.0 mi Calm Calm - N/A   Clear
6:54 PM 41.0 °F 37.1 °F 27.0 °F 57% 30.25 in 10.0 mi North 5.8 mph - N/A   Clear
7:54 PM 37.0 °F 31.6 °F 26.1 °F 65% 30.26 in 10.0 mi North 6.9 mph - N/A   Clear
8:54 PM 37.0 °F - 25.0 °F 62% 30.26 in 10.0 mi Calm Calm - N/A   Clear
9:54 PM 33.1 °F - 26.1 °F 75% 30.27 in 10.0 mi Calm Calm - N/A   Clear
11:54 PM 30.0 °F 26.5 °F 25.0 °F 82% 30.26 in 10.0 mi North 3.5 mph - N/A   Clear